Regional Weather Roundup
Issued by NWS

Home | Current Version | Previous Version | Graphics & Text | Print | Product List | Glossary On
Versions: 1 2 3 4 5 6 7 8 9 10 11 12 13 14 15 16 17 18 19 20 21 22 23 24 25 26 27 28 29 30 31 32 33 34 35 36 37 38 39 40 41 42 43 44 45 46 47 48 49 50
000
ASUS43 KBIS 210520
RWRND

NORTH DAKOTA REGIONAL WEATHER ROUNDUP
NATIONAL WEATHER SERVICE BISMARCK ND
1200 AM CDT THU AUG 21 2014

NOTE: "FAIR" INDICATES FEW OR NO CLOUDS BELOW 12,000 FEET WITH NO
SIGNIFICANT WEATHER AND/OR OBSTRUCTIONS TO VISIBILITY.


NDZ001>003-009>011-017-210600-
NORTHWEST NORTH DAKOTA

CITY           SKY/WX    TMP DP  RH WIND       PRES   REMARKS
WILLISTON      CLEAR     63  60  90 N3        29.79R
MINOT          RAIN      65  63  93 N7        29.76F FOG
MINOT AFB      LGT RAIN  64  64 100 N3        29.77R
$$

NDZ018>021-031>035-040>046-210600-
SOUTHWEST NORTH DAKOTA

CITY           SKY/WX    TMP DP  RH WIND       PRES   REMARKS
BISMARCK       MOCLDY    70  69  97 NW8       29.73R
DICKINSON      CLEAR     61  59  93 NW7       29.80R
GARRISON         N/A     66  65  96 E6        29.76R
HETTINGER ARPT CLEAR     60  57  89 NW3       29.82R
$$

NDZ004>008-012>016-024-026-027-054-210600-
NORTHEAST NORTH DAKOTA

CITY           SKY/WX    TMP DP  RH WIND       PRES   REMARKS
GRAND FORKS    MOCLDY    71  66  84 SE10      29.79R
GRND FRKS AFB  MOCLDY    71  70  99 SE8       29.80R
DEVILS LAKE    CLOUDY    72  64  78 SE15      29.74F
$$

NDZ022-023-025-028>030-036>039-047>053-210600-
SOUTHEAST NORTH DAKOTA

CITY           SKY/WX    TMP DP  RH WIND       PRES   REMARKS
FARGO          CLOUDY    74  66  76 SE10      29.78R
JAMESTOWN      RAIN      71  69  93 SE7       29.78F FOG
$$



USA.gov is the U.S. government's official web portal to all federal, state and local government web resources and services.